Location: Lesignano de� Bagni
(44.6500°N, 10.3000°E)
Time: 19:16:20
(UTC+00:00)

CZ-4 R/B - Pass Details

Date: 03 March 2021
Orbit: 532 x 597 km, 97.7° (Epoch: 19 April)

Event Time Altitude Azimuth Distance (km) Brightness Sun altitude
Rises 18:01:19 0° 171° (S) 2,664 4.7 -10.0°
Reaches altitude 10° 18:03:24 10° 174° (S) 1,782 3.9 -10.4°
Maximum altitude 18:07:14 70° 258° (WSW) 575 1.6 -11.1°
Drops below altitude 10° 18:11:09 10° 343° (NNW) 1,819 4.2 -11.8°
Sets 18:13:18 0° 346° (NNW) 2,726 5.1 -12.2°
